Location: Dannhausen
(51.8650°N, 10.1026°E)
Time: 08:15:07
(UTC+00:00)

Daily predictions for brighter satellites

Satellite Brightness Start Highest point End
(mag) Time Altitude Azimuth Time Altitude Azimuth Time Altitude Azimuth
APEX 4.5 18:30:47 10° NNW 18:37:29 84° WSW 18:42:56 10° SSE
Intercosmos 24 Rocket 4.5 18:35:13 10° SSW 18:39:34 82° W 18:43:10 10° N
Meteor 1-16 Rocket 4.2 18:34:13 10° S 18:39:37 69° E 18:45:15 10° NNE
Cosmos 614 Rocket 4.2 18:34:53 10° S 18:39:55 51° ESE 18:44:56 10° NNE
CZ-2C R/B 2.8 18:35:17 10° SSE 18:40:06 78° ENE 18:44:52 10° NNW
STARLINK-1239 3.7 18:36:51 10° WNW 18:41:01 88° N 18:45:11 10° ESE
ATLAS CENTAUR R/B 3.4 18:38:52 10° NNW 18:41:40 18° NNE 18:44:21 10° ENE
MONITOR-E 3.7 18:40:48 10° SSE 18:43:25 72° ENE 18:46:04 10° N
STARLINK-29 4.3 18:41:15 10° SSW 18:43:50 22° SE 18:46:25 10° E
Cosmos 1190 Rocket 4.4 18:41:02 10° S 18:46:00 42° ESE 18:50:56 10° NE
STARLINK-1240 3.6 18:41:50 10° WNW 18:46:00 90° N 18:50:09 10° ESE
SJ-6B 2.9 18:42:30 10° SSE 18:46:36 69° ENE 18:50:44 10° N
Resurs 1-3 4.2 18:42:59 10° SE 18:47:04 40° ENE 18:51:11 10° N
Aureole 1 Rocket 4.1 18:40:08 10° S 18:47:08 55° ESE 18:52:33 10° NNE
BREEZE-M DEB (TANK) 4.4 18:40:09 10° W 18:47:38 50° SSW 18:50:36 10° SE
Cosmos 1300 4.1 18:45:28 10° SE 18:48:19 20° E 18:51:12 10° NE
Cosmos 2369 Rocket 4.3 18:44:34 10° NW 18:49:20 28° WSW 18:54:03 10° SSW
STARLINK-1216 3.6 18:46:48 10° WNW 18:50:58 88° SSW 18:55:07 10° ESE
STARLINK-60 3.4 18:48:06 10° SW 18:51:14 43° SSE 18:54:23 10° E
CZ-2C R/B 4.3 18:49:15 10° NNE 18:53:38 37° E 18:57:55 10° SSE
STARLINK-1237 3.6 18:51:46 10° WNW 18:55:55 85° SSW 18:59:54 11° ESE
Cosmos 2058 Rocket 3.3 18:56:17 10° S 19:00:39 51° E 19:05:01 10° NNE
STARLINK-1202 3.6 18:56:46 10° WNW 19:00:55 82° SSW 19:04:42 12° ESE
Cosmos 1461 3.8 18:58:02 10° NW 19:02:27 54° SW 19:06:59 10° SSE
STARLINK-1228 4.1 19:00:18 10° W 19:02:57 30° SSW 19:05:31 11° SSE
Cosmos 1726 Rocket 3.5 18:58:52 10° S 19:03:17 79° E 19:07:46 10° NNE
SL-08 RB Rocket 3.7 18:59:03 10° SSE 19:03:38 86° ENE 19:08:19 10° NNW
Cosmos 921 Rocket 2.9 19:00:29 10° NNW 19:04:41 85° ENE 19:08:54 10° SSE
Cosmos 1703 4.0 19:01:02 10° NNW 19:04:56 58° W 19:08:51 10° S
Cosmos 2341 Rocket 4.2 18:59:14 10° N 19:05:34 58° ENE 19:11:52 10° SSE
ADEOS Rocket 4.4 19:01:26 10° N 19:07:28 44° WNW 19:12:57 10° SW
SL-4 R/B 1.5 19:04:13 10° WSW 19:07:34 63° SSE 19:10:57 10° E
Cosmos 1726 3.4 19:04:25 10° SSW 19:08:01 46° WNW 19:11:38 10° N
CZ-4C R/B 3.7 19:03:05 10° NW 19:09:08 38° NNE 19:16:12 10° E
STARLINK-1246 3.6 19:06:43 10° WNW 19:10:51 77° SSW 19:14:15 15° ESE
RESURS DK-1 3.8 19:07:56 10° NNW 19:11:25 25° NE 19:14:21 13° E
Cosmos 407 Rocket 3.4 19:06:23 10° SSW 19:11:30 75° ESE 19:16:38 10° NNE
Cosmos 1908 3.3 19:07:49 10° SSW 19:11:42 83° WNW 19:15:38 10° N
STARLINK-1201 3.8 19:08:59 10° W 19:12:06 41° SSW 19:14:33 15° SE
Cosmos 1340 Rocket 2.8 19:08:10 10° S 19:12:10 65° E 19:16:10 10° NNE
FREGAT/IRIS 4.0 19:09:56 10° SSW 19:12:28 34° W 19:15:01 10° NNW
Cosmos 2228 3.4 19:09:54 10° SSW 19:14:13 71° WNW 19:18:35 10° N
Cosmos 676 Rocket 4.3 19:10:12 10° S 19:15:10 44° ESE 19:20:09 10° NE
STARLINK-1224 3.7 19:11:43 10° WNW 19:15:52 74° SSW 19:19:04 16° ESE
Cosmos 2218 Rocket 4.4 19:10:45 10° N 19:16:43 45° ENE 19:22:16 12° SE
STARLINK-1203 3.7 19:13:51 10° WNW 19:18:03 70° SSW 19:21:13 17° ESE
Cosmos 2058 3.7 19:14:47 10° N 19:18:32 32° ENE 19:21:10 17° SE
Cosmos 1943 4.0 19:13:03 10° SW 19:18:39 56° NW 19:24:17 10° NNE
Cosmos 220 Rocket 4.2 19:14:29 10° NNW 19:18:46 55° ENE 19:22:11 15° SE
MetOp-A 4.2 19:15:13 10° SSE 19:20:35 89° ENE 19:25:59 10° NNW
STARLINK-1225 3.7 19:16:43 10° WNW 19:20:51 71° SSW 19:23:51 18° ESE
MOS 1 Rocket 3.8 19:16:07 10° NNE 19:21:23 50° E 19:26:40 10° S
Resurs 01 Rocket 1.7 19:17:43 11° SSE 19:21:55 60° ENE 19:26:18 10° N
CZ-2C R/B 2.8 19:17:44 10° NNE 19:22:44 46° E 19:27:43 10° S
STARLINK-52 3.5 19:21:04 10° SW 19:24:02 36° SSE 19:25:57 18° E
STARLINK-1230 3.7 19:21:41 10° WNW 19:25:48 68° SSW 19:28:37 19° ESE
Cosmos 962 Rocket 4.4 19:20:18 10° N 19:26:30 84° E 19:32:38 10° S
Nadezhda 1 Rocket 4.2 19:20:14 10° SSW 19:26:37 81° W 19:32:59 10° N
BREEZE M DEB (TANK) 3.9 19:23:55 10° SSW 19:27:08 29° SE 19:34:37 10° ENE
Cosmos 1812 Rocket 4.4 19:25:20 15° SE 19:28:12 30° E 19:32:00 10° NNE
Cosmos 1697 Rocket 3.7 19:23:44 10° NNW 19:28:52 33° NE 19:32:44 16° E
SL-8 Rocket 4.1 19:22:50 10° N 19:29:07 63° ENE 19:35:13 11° SSE
Cosmos 2151 4.5 19:26:08 10° NNE 19:29:22 21° ENE 19:30:59 17° E
SPOT 3 Rocket 3.8 19:24:28 10° S 19:29:41 74° WSW 19:34:55 10° NNW
Cosmos 1023 Rocket 4.4 19:25:17 10° SSW 19:30:27 81° ESE 19:35:36 10° NNE
STARLINK-1243 3.8 19:26:39 10° WNW 19:30:46 64° SSW 19:33:24 21° SE
SL-24 R/B - RUBIN 2 4.3 19:25:18 10° SW 19:31:03 84° SE 19:37:32 10° NE
ARGOS 4.2 19:26:07 10° S 19:31:18 47° W 19:36:30 10° NNW
FALCON 9 DEB 3.5 19:29:02 10° SW 19:32:22 44° SSE 19:34:32 19° E
STARLINK-1236 3.8 19:31:38 10° WNW 19:35:44 61° SSW 19:38:11 23° SE
Iridium 2 4.1 19:33:27 18° SSE 19:35:57 41° E 19:39:34 10° NNE
Cosmos 1954 Rocket 4.0 19:31:34 10° S 19:36:44 62° ESE 19:41:53 10° NNE
USA 186 4.3 19:34:16 10° SSW 19:36:50 22° W 19:39:20 10° NW
Cosmos 2181 Rocket 4.1 19:30:51 10° SSE 19:36:53 54° E 19:42:51 10° NNE
Cosmos 2366 rocket 4.0 19:37:08 10° N 19:43:15 64° ENE 19:48:11 16° SSE
Cosmos 1076 Rocket 3.6 19:39:29 10° N 19:43:44 58° ENE 19:46:20 22° SSE
STARLINK-1269 3.9 19:41:35 10° WNW 19:45:39 55° SSW 19:47:44 26° SE
Cosmos 1959 Rocket 4.5 19:41:11 10° N 19:47:31 70° ENE 19:52:36 16° SSE
Cosmos 1656 3.8 19:42:14 10° NNW 19:47:55 62° NE 19:51:23 23° SE
Cosmos 1763 Rocket 3.6 19:43:15 10° NNW 19:48:26 63° ENE 19:51:29 24° SE
Landsat 7 4.3 19:46:17 23° SE 19:48:50 45° ENE 19:53:22 10° N
SL-16 R/B 4.3 19:46:11 10° NNW 19:49:44 17° NNE 19:53:16 10° ENE
STARLINK-1200 4.0 19:46:34 10° WNW 19:50:38 52° SSW 19:52:31 28° SE
Cosmos 540 Rocket 4.2 19:47:08 10° NNW 19:52:00 38° NE 19:54:30 24° ESE
SPOT 1/Viking Rocket 4.0 19:50:06 24° SE 19:52:57 46° ENE 19:57:57 10° N
GRACE-FO 1 4.5 19:50:50 19° S 19:53:26 78° E 19:57:09 10° N
GRACE-FO 2 4.5 19:51:14 19° S 19:53:49 79° E 19:57:32 10° N
STARLINK-1192 4.1 19:51:34 10° WNW 19:55:35 49° SSW 19:57:18 29° SSE
SeaSat 1 4.2 19:51:14 10° NNE 19:55:42 35° NW 20:00:10 10° WSW
Cosmos 1455 3.4 19:56:33 25° E 19:56:33 25° E 19:59:34 10° NE
Cosmos 2322 Rocket 4.4 19:53:17 10° NNW 19:56:42 16° NNE 20:00:06 10° ENE
Iridium 4 Rocket 3.0 19:53:02 10° N 19:57:11 57° E 19:59:06 29° SSE
USA 234 3.9 19:52:57 10° ENE 19:58:35 30° SE 20:04:10 10° S
Cosmos 1980 Rocket 3.3 19:54:01 10° NNW 19:59:02 32° NE 20:02:02 20° E
Cosmos 1174 4.3 19:55:55 10° NW 19:59:57 68° SW 20:02:39 26° SSE
STARLINK-1244 4.1 19:56:39 10° WNW 20:00:38 47° SSW 20:02:10 31° SSE
Cosmos 1892 2.7 19:56:45 10° N 20:00:39 67° ENE 20:02:12 34° SSE
Abrixas rocket 4.2 20:00:14 10° WSW 20:01:58 15° SSW 20:02:07 14° SSW
H-2A R/B 4.4 20:01:16 10° SW 20:05:08 21° W 20:08:59 10° NW
Cosmos 1825 3.0 20:01:44 10° N 20:05:11 32° ENE 20:05:39 31° E
STARLINK-1138 4.2 20:01:33 10° WNW 20:05:30 44° SSW 20:06:52 32° SSE
ATLAS 5 CENTAUR R/B 2.0 20:02:03 10° WSW 20:06:19 66° NW 20:11:15 10° NE
COSMOS 2455 4.1 20:03:25 10° NW 20:08:51 36° WSW 20:13:57 11° S
Cosmos-2242 3.7 20:08:41 33° ESE 20:09:07 33° E 20:13:04 10° NNE
STARLINK-1143 4.3 20:06:32 10° WNW 20:10:27 42° SSW 20:11:39 33° S
Cosmos 489 Rocket 4.4 20:06:58 10° NNW 20:13:13 73° ENE 20:16:28 30° SE
Cosmos 1140 Rocket 4.4 20:08:41 10° SW 20:13:44 51° WNW 20:18:47 10° NNE
ERBS 3.2 20:10:39 10° WNW 20:13:48 36° SW 20:14:20 34° SSW
Cosmos 1356 Rocket 3.9 20:13:46 39° ESE 20:14:16 40° E 20:18:15 10° NNE
STARLINK-1241 4.4 20:11:34 10° WNW 20:15:27 39° SSW 20:16:28 33° S
STARLINK-29 2.7 20:16:27 10° WSW 20:19:40 80° SSE 20:19:44 79° SE
SAR-Lupe-2 3.4 20:16:11 10° NNE 20:19:48 89° ESE 20:21:15 34° SSW
Cosmos 2344 4.5 20:11:31 10° NW 20:20:12 62° NNE 20:28:34 21° ESE
STARLINK-1239 4.4 20:16:33 10° W 20:20:23 37° SSW 20:21:14 33° S
ATLAS CENTAUR R/B 1.5 20:17:32 10° NW 20:21:26 55° NE 20:22:10 45° E
IGS 5A 3.3 20:20:27 42° SSE 20:21:48 81° ENE 20:25:58 10° NNW
Cosmos 1300 4.0 20:20:08 10° SW 20:23:44 39° WNW 20:27:22 10° N
Cosmos 1821 Rocket 4.2 20:17:37 10° N 20:23:55 56° ENE 20:26:41 33° SE
USA 32 4.0 20:19:07 10° N 20:24:21 67° E 20:26:24 37° SSE
Spot 2 Rocket 3.6 20:22:15 26° S 20:25:11 73° WSW 20:30:19 10° NNW
Cosmos 2360 4.5 20:21:27 10° NNW 20:27:05 55° NE 20:29:15 35° ESE
STARLINK-60 3.0 20:24:13 10° W 20:27:31 76° N 20:27:48 68° NE
Cosmos 841 Rocket 3.5 20:22:20 10° NNW 20:27:39 74° ENE 20:29:32 40° SE
Cosmos 1850 Rocket 3.8 20:24:21 15° SSW 20:28:40 71° ESE 20:33:51 10° NNE
Mayak 1.0 20:27:33 10° NE 20:28:23 13° ENE 20:28:23 13° ENE
Cosmos 2278 4.0 20:24:51 10° NNW 20:30:26 55° NE 20:32:29 36° ESE
Terra 2.3 20:29:53 39° ESE 20:30:57 45° ENE 20:35:30 10° N
SPOT 5 2.7 20:31:40 49° ESE 20:32:29 58° ENE 20:36:45 10° N
Cosmos 2082 Rocket 3.5 20:34:09 23° E 20:34:09 23° E 20:37:25 10° NE
SL-08 R/B 4.4 20:27:06 10° N 20:33:17 86° W 20:36:45 28° S
Meteor 2-10 Rocket 3.6 20:33:52 40° SSE 20:35:33 59° E 20:40:57 10° NNE
Cosmos 1833 Rocket 3.0 20:39:01 40° ESE 20:39:16 41° ESE 20:44:32 10° NE
CARTOSAT-1 3.5 20:39:31 58° SE 20:40:16 74° ENE 20:44:36 10° N
CZ-4B DEB 4.4 20:40:16 72° WSW 20:40:19 73° WSW 20:43:43 10° NNW
Cosmos 1408 2.7 20:42:58 10° NNW 20:46:37 65° W 20:46:55 61° SW
SL-4 R/B 1.9 20:43:39 10° W 20:46:33 62° W 20:46:33 62° W
ERS-1 Rocket 2.9 20:47:01 46° S 20:48:32 85° WSW 20:53:36 10° NNW
RESURS DK-1 2.7 20:45:40 10° NW 20:49:45 55° WSW 20:50:15 51° SW
Cosmos 1766 Rocket 3.5 20:47:43 10° N 20:52:14 89° ENE 20:52:50 67° SSE
Cosmos 1570 Rocket 4.3 20:47:30 10° NNW 20:52:49 63° WSW 20:54:32 41° S
Okean 3 Rocket 3.6 20:49:19 10° NNW 20:53:46 75° W 20:54:33 58° SSW
BREEZE M DEB (TANK) 3.4 20:48:58 10° WSW 20:53:25 43° SW 20:53:25 43° SW
CZ-4C R/B 2.9 20:51:39 10° NW 20:58:35 83° NE 21:01:49 40° SE
Resurs 01 Rocket 3.9 20:55:39 10° SW 20:58:48 19° W 21:01:59 10° NW
COSMOS 2406 3.1 20:54:52 19° SSW 20:59:03 85° ESE 21:04:49 10° NNE
Cosmos 1500 Rocket 4.4 20:58:13 10° N 21:01:56 37° ENE 21:01:56 37° ENE
CZ-2C R/B 4.3 20:58:20 10° N 21:02:54 32° WNW 21:07:27 10° WSW
Cosmos 2151 3.6 21:02:52 10° NNW 21:06:56 49° W 21:07:34 44° SW
Cosmos 1697 Rocket 3.0 21:07:37 10° NW 21:13:12 60° WSW 21:14:29 48° SSW
Cosmos 2369 3.9 21:07:45 10° NW 21:13:19 61° WSW 21:14:34 49° SSW
Cosmos 1408 Rocket 3.9 21:27:05 10° NNW 21:31:22 61° W 21:31:22 61° W
Cosmos 1455 3.7 21:31:25 31° W 21:31:54 32° WNW 21:35:25 10° N
Cosmos 540 Rocket 4.3 21:28:50 10° NW 21:33:38 39° WSW 21:34:20 37° SW
Cosmos 1743 Rocket 3.8 21:29:45 10° N 21:33:44 67° NNE 21:33:44 67° NNE
SL-16 R/B 2.7 21:29:48 10° NNW 21:35:18 47° NE 21:36:11 44° ENE
Cosmos 2360 Rocket 3.6 21:30:54 10° NNW 21:35:44 28° NE 21:37:32 24° ENE
Thor Agena Rocket 4.1 21:32:17 10° NNE 21:36:20 45° ENE 21:36:20 45° ENE
Cosmos 1825 4.0 21:37:28 10° NW 21:40:28 24° W 21:40:28 24° W
Cosmos 836 Rocket 4.4 21:36:21 10° NNW 21:41:39 85° ENE 21:41:41 85° E
USA 234 3.1 21:35:41 10° ENE 21:42:16 78° SSE 21:48:49 10° SW
Cosmos 2322 Rocket 2.8 21:36:49 10° NNW 21:42:16 45° NE 21:43:04 43° ENE
Cosmos 1980 Rocket 2.3 21:37:52 10° NW 21:43:27 62° WSW 21:43:48 61° SW
Nadezhda 3 Rocket 4.4 21:41:26 33° SW 21:44:11 58° WNW 21:50:23 10° N
Cosmos 2221 3.4 21:46:37 44° NNE 21:46:37 44° NNE 21:49:44 10° NNE
ASTEX 1 3.6 21:50:00 63° W 21:50:03 63° W 21:55:00 10° N
ATLAS 5 CENTAUR R/B 3.9 21:47:57 10° WNW 21:51:52 26° NNW 21:56:16 10° NE
Meteor 2-3 Rocket 4.2 21:49:01 10° NNW 21:54:34 52° W 21:55:21 48° WSW
Cosmos 2333 Rocket 4.2 21:53:10 10° NNW 21:57:26 21° NNE 22:00:27 14° ENE
Cosmos 2084 4.3 21:54:06 10° NW 21:57:21 48° NW 21:57:21 48° NW
Cosmos 1633 4.5 21:55:08 10° NNW 21:56:58 28° NNW 21:56:58 28° NNW
ATLAS CENTAUR R/B 3.6 21:57:02 10° WNW 21:58:21 16° W 21:58:21 16° W
Cosmos 1727 Rocket 4.0 22:05:51 62° E 22:05:54 62° E 22:12:10 10° NNE
Mayak -0.3 22:01:57 10° N 22:04:58 45° N 22:04:58 45° N
Cosmos 1153 Rocket 4.4 22:01:51 10° N 22:08:13 83° E 22:08:42 77° SE
Cosmos 1842 Rocket 4.4 22:09:34 47° NNW 22:09:34 47° NNW 22:13:00 10° N
Terra 3.3 22:08:45 28° W 22:08:53 28° W 22:13:00 10° NW
Cosmos 773 Rocket 4.5 22:08:47 10° NNW 22:13:37 53° NE 22:13:37 53° NE
Cosmos 1241 Rocket 4.5 22:10:05 10° NW 22:16:21 72° NE 22:17:01 66° E
Sich 1 4.0 22:11:59 10° N 22:15:12 46° N 22:15:12 46° N
Cosmos 2082 Rocket 2.3 22:15:56 64° W 22:16:31 69° WNW 22:22:12 10° NNE
Cosmos 1802 Rocket 4.3 22:11:54 10° N 22:17:58 52° ENE 22:18:13 51° E
Cosmos 2100 Rocket 4.0 22:14:14 10° N 22:20:27 68° ENE 22:20:40 68° E
Cosmos 1486 Rocket 4.2 22:22:40 70° N 22:22:40 70° N 22:27:27 10° NNE
Cosmos 1833 Rocket 3.6 22:20:38 28° WSW 22:23:12 45° NW 22:28:37 10° NNE
Meteor 2-2 Rocket 4.2 22:24:29 80° NW 22:24:29 80° NW 22:30:02 10° NNE
Cosmos 968 Rocket 3.9 22:25:39 59° NNE 22:25:39 59° NNE 22:29:57 10° NNE
Cosmos 2173 Rocket 3.9 22:20:06 10° N 22:26:13 69° ENE 22:26:16 69° E
Cosmos 1605 Rocket 4.4 22:22:51 10° NNW 22:28:45 50° W 22:29:21 49° WSW
Cosmos 2219 Rocket 3.7 22:28:02 10° NNW 22:32:51 28° NE 22:34:42 23° ENE
ALOS 2 3.6 22:36:50 44° N 22:36:50 44° N 22:39:53 10° NNW
NOSS 2-1 (C) 4.3 22:32:43 10° NW 22:37:02 72° NW 22:37:02 72° NW
NOSS 2-1 (D) 4.3 22:36:57 10° NW 22:41:10 67° WNW 22:41:10 67° WNW
CZ-4C R/B 3.8 22:40:32 10° WNW 22:46:54 34° WSW 22:46:59 34° WSW
Cosmos 2237 4.3 22:46:16 10° NNW 22:51:39 72° NNE 22:51:39 72° NNE
Cosmos 1000 Rocket 4.4 22:56:39 79° E 22:56:39 79° E 23:02:51 10° NNE
Helios 1A 4.5 22:59:02 35° NNW 22:59:02 35° NNW 23:01:32 10° NNW
Cosmos 1633 Rocket 4.3 22:53:21 10° NNW 22:56:12 39° NNW 22:56:12 39° NNW
Cosmos 2322 4.2 22:53:22 10° NNW 22:58:59 52° NE 22:59:14 52° ENE
COSMOS 2428 3.8 22:57:08 10° NNW 23:02:28 38° NE 23:03:37 35° ENE
Cosmos 1607 4.4 23:12:04 46° W 23:13:33 57° NW 23:19:44 10° NE
Cosmos 839 Rocket 4.3 23:14:56 59° E 23:14:56 59° E 23:21:07 10° NE
Meteor 1-20 Rocket 4.4 23:11:40 10° N 23:16:59 72° NNE 23:16:59 72° NNE
SL-16 R/B 3.3 23:14:09 10° NW 23:18:02 34° WNW 23:18:02 34° WNW
Cosmos 2360 Rocket 2.5 23:14:40 10° NNW 23:19:17 59° NW 23:19:17 59° NW
Helios 1B rocket 4.3 23:20:10 10° NNE 23:22:09 26° NE 23:22:09 26° NE
USA 234 3.6 23:18:47 10° ENE 23:25:13 63° NNW 23:31:40 10° W
Cosmos 2322 Rocket 3.3 23:21:04 10° NW 23:24:52 34° WNW 23:24:52 34° WNW
Cosmos 2061 Rocket 4.2 23:24:51 10° NNW 23:30:49 62° W 23:30:49 62° W
Cosmos 923 Rocket 4.4 23:28:30 10° NNW 23:32:50 59° N 23:32:50 59° N
ATLAS 5 CENTAUR R/B 4.2 23:33:54 10° NW 23:38:03 25° NNE 23:42:45 10° ENE
MOS 1-B Rocket 4.1 23:33:34 10° NNE 23:39:48 80° WNW 23:40:21 74° WSW
Mayak 1.6 23:40:00 10° NW 23:40:51 11° NW 23:41:32 10° WNW
Cosmos 2333 Rocket 2.3 23:37:03 10° NNW 23:42:25 70° NNE 23:42:25 70° NNE
Cosmos 2237 Rocket 3.6 23:38:30 10° NNW 23:43:39 34° NE 23:46:25 22° E
SME Rocket 4.5 23:43:28 10° NNE 23:46:10 35° N 23:46:10 35° N
Cosmos 2233 Rocket 3.9 23:41:39 10° N 23:47:50 83° WNW 23:47:50 83° WNW
Cosmos 1680 Rocket 3.9 23:44:45 10° NNW 23:49:10 62° N 23:49:10 62° N
Lacrosse 5 rocket 4.1 23:54:19 11° ENE 23:54:19 11° ENE 23:54:34 10° ENE
SL-16 R/B 3.5 23:48:42 31° ESE 23:50:52 40° ENE 23:56:37 10° N
Cosmos 44 Rocket 4.2 23:53:59 44° NE 23:53:59 44° NE 23:57:14 10° NE
